Location: Unspecified
(33.3110°N, 0.0000°E)
Time: 00:50:08
(UTC+00:00)

ISS - Visible Passes

Search period start: 16 October 2019 00:00
Search period end: 26 October 2019 00:00
Orbit: 411 x 421 km, 51.6° (Epoch: 15 October)

Date Brightness Start Highest point End Pass type
(mag) Time Alt. Az. Time Alt. Az. Time Alt. Az.
21 Oct -0.8 05:34:04 10° S 05:36:35 20° SE 05:39:05 10° E visible
22 Oct -0.3 04:47:48 10° SE 04:48:12 10° SE 04:48:35 10° ESE visible
23 Oct -3.5 05:32:38 10° SW 05:35:58 71° SE 05:39:19 10° NE visible
24 Oct -2.2 04:45:02 14° SSW 04:47:29 34° SE 04:50:34 10° ENE visible
25 Oct -1.0 03:59:36 17° ESE 03:59:36 17° ESE 04:01:24 10° E visible
25 Oct -2.9 05:32:34 10° WSW 05:35:34 33° NW 05:38:40 10° NNE visible
